EW7788 Weather Reports


time (UTC)temp
C
wind
direction
speed
KPH
gust
KPH
rain 1hr
cm
rain 24hr
cm
rain mn
cm
humidity
%
barometer
mb
20260505123003 10 338 1.6 6.4 0.00 0.13 0.13 80 1022.1
20260505121604 10 332 3.2 14.5 0.00 0.13 0.13 79 1022.2
20260505120005 10 227 3.2 9.7 0.00 0.13 0.13 80 1022.3
20260505114603 10 355 1.6 12.9 0.00 0.13 0.13 80 1022.4
20260505113006 10 319 1.6 9.7 0.00 0.13 0.13 80 1022.3
20260505111606 10 346 3.2 9.7 0.00 0.13 0.13 80 1022.2
20260505101519 11 292 3.2 8.0 0.00 0.13 0.13 79 1022.2
20260505100004 11 315 3.2 14.5 0.00 0.13 0.13 79 1022.3
20260505094604 11 304 4.8 12.9 0.00 0.13 0.13 79 1022.4
20260505093004 11 308 3.2 9.7 0.00 0.13 0.13 79 1022.4
20260505091622 11 29 4.8 12.9 0.00 0.13 0.13 79 1022.3
20260505090016 11 321 3.2 12.9 0.00 0.13 0.13 80 1022.2
20260505084503 11 275 4.8 9.7 0.00 0.13 0.13 80 1022.1
20260505083003 11 290 4.8 12.9 0.00 0.13 0.13 80 1021.9
20260505081606 11 306 3.2 11.3 0.00 0.13 0.13 80 1021.7
20260505080011 11 327 4.8 14.5 0.00 0.13 0.13 80 1021.5
20260505074603 11 327 4.8 11.3 0.00 0.13 0.13 80 1021.4
20260505073008 11 313 1.6 12.9 0.00 0.13 0.13 79 1021.2
20260505071616 11 351 6.4 14.5 0.00 0.13 0.13 79 1021.0
20260505070003 11 310 4.8 14.5 0.00 0.13 0.13 79 1020.9
20260505064610 11 305 3.2 12.9 0.00 0.13 0.13 79 1020.8
20260505063004 11 323 4.8 14.5 0.00 0.13 0.13 79 1020.6
20260505060003 11 270 4.8 16.1 0.00 0.13 0.13 79 1020.6
20260505054607 11 333 3.2 11.3 0.00 0.13 0.13 78 1020.4
20260505053013 11 284 3.2 12.9 0.00 0.13 0.13 80 1020.1
20260505051503 11 292 3.2 12.9 0.00 0.13 0.13 80 1020.0
20260505050103 11 329 6.4 16.1 0.00 0.13 0.13 80 1019.9
20260505041606 11 284 6.4 16.1 0.00 0.13 0.13 80 1019.5
20260505040005 11 332 4.8 20.9 0.00 0.15 0.13 81 1019.4
20260505034602 11 311 6.4 17.7 0.00 0.15 0.13 80 1019.2
20260505033003 11 348 6.4 14.5 0.00 0.15 0.13 80 1019.2
20260505031603 11 340 6.4 17.7 0.00 0.15 0.13 80 1019.2
20260505030009 11 271 9.7 22.5 0.00 0.15 0.13 81 1019.2
20260505024503 11 269 6.4 20.9 0.00 0.15 0.13 80 1019.1
20260505023010 11 317 8.0 20.9 0.00 0.15 0.13 80 1019.0
20260505021503 12 307 6.4 17.7 0.00 0.15 0.13 81 1019.2
20260505020003 12 277 4.8 19.3 0.00 0.15 0.13 80 1019.3
20260505014611 12 325 9.7 22.5 0.00 0.15 0.13 82 1019.3
20260505011607 11 345 9.7 35.4 0.00 0.15 0.13 83 1019.4
20260505010017 11 355 8.0 29.0 0.00 0.15 0.13 83 1019.2
20260505004507 11 336 8.0 20.9 0.00 0.15 0.13 84 1019.0
20260505003115 11 320 9.7 25.7 0.00 0.15 0.13 84 1018.8
20260505001610 11 311 8.0 22.5 0.00 0.15 0.13 86 1018.8
20260505000007 11 296 11.3 25.7 0.00 0.15 0.13 86 1018.7
20260504234604 11 320 12.9 25.7 0.00 0.15 0.13 86 1018.5
20260504233006 11 298 8.0 22.5 0.00 0.15 0.13 87 1018.7
20260504231604 11 279 9.7 22.5 0.13 0.15 0.13 88 1018.5
20260504230105 10 344 9.7 17.7 0.13 0.15 0.13 88 1018.4
20260504224511 10 319 8.0 17.7 0.13 0.15 0.13 88 1018.2
20260504223014 10 284 6.4 22.5 0.13 0.15 0.13 88 1018.1
20260504221506 10 337 8.0 19.3 0.00 0.03 0.00 88 1017.7
20260504220006 10 294 6.4 20.9 0.00 0.03 0.00 88 1017.5
20260504214604 10 344 9.7 22.5 0.00 0.03 0.00 87 1017.3
20260504213021 10 19 8.0 19.3 0.00 0.03 0.00 87 1016.9
20260504211652 10 268 8.0 16.1 0.00 0.03 0.00 87 1016.6
20260504210004 10 273 9.7 22.5 0.00 0.03 0.00 87 1016.4
20260504204605 10 327 9.7 20.9 0.00 0.03 0.00 87 1016.1
20260504203003 10 355 11.3 20.9 0.00 0.03 0.00 86 1015.8
20260504201614 10 15 6.4 19.3 0.00 0.03 0.00 86 1015.7
20260504200006 10 299 8.0 20.9 0.00 0.03 0.00 86 1015.5
20260504194606 10 326 6.4 17.7 0.00 0.03 0.00 86 1015.3
20260504193003 10 296 6.4 24.1 0.00 0.03 0.00 86 1015.3
20260504191612 10 314 6.4 17.7 0.00 0.03 0.00 86 1015.1
20260504190004 10 297 4.8 16.1 0.00 0.05 0.00 86 1014.9
20260504184604 10 340 4.8 19.3 0.00 0.05 0.00 85 1014.8
20260504183011 10 344 6.4 20.9 0.00 0.05 0.00 85 1014.5
20260504181505 10 312 12.9 25.7 0.00 0.05 0.00 85 1014.4
20260504180004 11 272 11.3 25.7 0.00 0.05 0.00 84 1014.2
20260504174607 11 279 6.4 24.1 0.00 0.05 0.00 83 1014.1
20260504173005 11 294 9.7 19.3 0.00 0.05 0.00 83 1013.9
20260504171605 10 276 8.0 24.1 0.00 0.05 0.00 83 1013.7